STARLINK-2390 (47809 NORAD) Tracking and Keplerian Element Data

This shows tracking and keplerian element data for the satellite.

Feedback or suggestion? Click here.




ElementValue
Catalog47809
NameSTARLINK-2390
Epoch Orbit1676
Epoch Day170.41839323
Epoch Year2021
RAAN72.1599
Inclination53.0558
Eccentricity0.0002132
Argument of Perigee77.1087
Mean Anonmoly283.014
Mean Motion15.06396463
Decay Rate9.3E-06
L11 47809U 21018Y 21170.41839323 .00000930 00000-0 81333-4 0 9998
L22 47809 53.0558 72.1599 0002132 77.1087 283.0140 15.06396463 16768

Live tracking and technical data element details for STARLINK-2390 (NORAD 47809). STARLINK-2390 can be tracked NOW for your location showing map with azimuth and elevation plus other details from your city location.

Track the satellite on the map from your city or location and see movement details for azimuth, elevation, latitude, longitude, range, height, and movement on the map or in text.







IsCatalogInMostPopularTable: catalog: 47809, numindb: 44
Update: records affected: 1



GetName: 47809 STARLINK-2390

Hit Count: updated at: Mon, 21 Jun 2021 03:58:42 GMT